FENGYUN 1C DEB, 30060

Orbit data source: Space-Track

FENGYUN 1C DEB, 30060 is space debris in SSO originally from a launch on Mon, 10 May 1999 UTC launched from the Taiyaun Space Center, China (TSC). Fengyun 1C debris stems from the Chinese weather satellite Fengyun-1C, which was intentionally destroyed by a Chinese anti-satellite missile in 2007. This event dramatically increased the amount of space debris, with thousands of trackable fragments posing hazards to satellites and human spaceflight. The Fengyun 1C debris cloud has become a focal point in discussions about space sustainability and the need for international regulations to prevent the creation of new debris.

Loading next visibility...
Identifier
30060, 1999-025PM
Orbit
SSO
Country
Flag of CNCN / PRC
Related business
Manufacturer
Unknown
Mission
Spacecraft
Bus & Motor
Unknown
Mass
Unknown
Launch date (UTC)
1999-05-10 (27 years ago)
Launch vehicle
Unknown
Launch site
Taiyaun Space Center, China (TSC)
Object type
Payload
Rocket body
Debris
Shape & HBR
Unknown shape, 0.1 m
Radar Cross Section
Medium (>0.1 m² and <1 m²)

Expand to show TLE details & history
Last TLE update: 9 hours ago

TLE from 9 hours ago
0 FENGYUN 1C DEB
1 30060U 99025PM  26264.82149485  .00000624  00000-0  79452-3 0  9997
2 30060  99.2931 115.9253 0344642  85.5053 337.9058 13.44429337960469
Epoch: 2026-09-21T19:42Z
TLE epoch observation values (Epoch: 2026-09-21T19:42:57.155Z)
Latitude
60.58518°
Longitude
162.71205°
Altitude
865.775 km
Speed
7.543 km/s
True Right ascension
06h 36m 35s
True Declination
60° 26' 24"
Sunlit
Object was in daylight at epoch
Visualization orbit readout
Latitude
Unknown
Longitude
Unknown
Altitude
Unknown
Speed
Unknown
Apparent Right ascension
Unknown
Apparent Declination
Unknown
Sunlit
N/A
Visualization observer readout
Local Sidereal Time
21:43:03
Azimuth
Unknown
Elevation
Unknown
Doppler factor
Unknown
Orbital elements
Apogee altitude
1,347.496 km
Perigee altitude
832.721 km
Semi-major axis
7,468.245 km
Eccentricity
0.03446
Inclination
99.2931°
RAAN
115.9253°
Arg. of periapsis
85.5053°
True anomaly
336.35888°
Mean anomaly
337.9058°
Eccentric anomaly
337.13864°
Mean motion
3.36291 °/min
Orbital period
107.05 mins
BSTAR
0.00079452
Loading maneuver chart data...
Computing Atmospheric mass density...

Documentation

Showing up to 5 results
|